Starlink 30337

decayed
NORAD ID: 57706 Int'l Des: 2023-129 Owner: SPXS Country: US Constellation: starlink
LEOCIRCULAR

关于 Starlink 30337

正在加载描述...

高度历史

Altitude vs Time

uPlot chart will show altitude changes over time

两行轨道根数

1 57706U 23129J 24026.99464693 .42642403 92048-5 35635-2 0 9993
2 57706 42.9861 318.9836 0006951 206.9992 207.9401 16.38552902 24744
Epoch: Jan 26, 2024 • Age: 16596 hours

当前状态

Position data unavailable
发射日期 Aug 27, 2023
运行时间 2.3 years
衰减日期 Jan 27, 2024
类型 internet

技术详情

分类 Payload
质量 730.00 kg
干质量 700.00 kg
总质量 730.00 kg
长度 0.30 m
直径 4.10 m
跨度 29.00 m
形状 Box + pan
制造商 SPXS
平台类型 Starlink V2M
阶段状态 Reentered
所有者/国家 SPXS/US

大型星座

Loading constellations...